RH
47 49 49 50 52 52 52 52 52 52 52 51 50 47 45 47 49 50 49 42 32 32 34 35 38 41 45 47 47 53 58 57 59 65 69 71 70 69 70 69 73 81 83 75 62 49 40 38 41 52 76 95 100 99 97 93 89 86 92 96 87 80 78 78 79 84 94 100 96 93 93 94 97 98
44 44 43 44 46 46 47 47 47 47 47 47 46 44 42 43 46 48 51 48 38 35 38 37 37 39 42 46 50 52 55 56 56 58 63 67 68 71 66 56 57 68 77 74 63 53 40 30 30 36 55 81 95 98 99 98 93 87 91 99 96 87 82 80 78 74 80 90 95 97 97 95 98 98
42 43 42 41 41 41 40 41 41 41 42 45 46 46 45 46 48 49 52 57 50 42 42 41 40 42 43 48 54 56 56 58 58 58 60 62 63 66 61 49 45 50 64 71 65 57 47 33 29 30 36 54 75 92 99 95 90 89 92 96 97 92 86 86 85 78 72 72 78 88 95 99 100 98
43 44 45 45 43 41 40 39 39 40 42 49 55 57 56 56 58 58 59 64 61 53 51 50 50 52 52 51 52 53 53 56 59 58 57 58 59 61 61 56 50 42 45 58 62 58 51 40 30 24 25 33 47 71 93 94 89 93 96 96 96 94 90 88 85 81 74 66 65 71 80 89 96 98
49 49 51 52 51 50 49 46 44 43 44 51 60 66 68 67 66 66 65 68 67 63 60 56 53 51 49 46 46 49 52 55 57 56 55 57 58 58 58 60 61 57 49 50 54 54 50 44 34 24 21 24 28 44 72 89 93 95 95 97 99 95 94 92 82 77 76 72 68 69 72 77 81 87
58 57 56 57 58 59 60 58 55 53 50 50 55 65 71 71 70 71 71 72 71 68 64 60 56 53 49 46 45 47 49 50 52 54 55 56 56 56 57 58 63 69 69 65 62 56 49 44 37 28 21 21 21 25 44 70 88 94 92 95 101 99 97 95 86 77 77 80 78 73 71 71 72 74
62 62 62 62 62 62 65 66 65 63 61 57 55 61 69 72 71 72 72 72 72 69 67 66 63 60 55 51 47 45 46 47 50 54 55 55 54 55 58 62 67 73 78 83 81 68 54 44 38 30 22 19 19 20 27 43 64 83 91 93 98 102 96 91 91 86 77 75 78 78 74 71 70 70
63 65 67 67 66 65 66 68 69 69 68 65 60 59 63 67 69 71 71 71 72 71 70 69 67 63 59 55 51 49 49 49 49 51 52 51 51 50 52 61 71 76 77 81 84 73 53 41 36 31 25 20 17 17 21 26 36 60 85 92 95 102 95 85 88 87 75 67 70 74 73 68 66 68
64 65 67 69 70 71 71 70 70 71 70 69 66 63 61 61 63 65 67 69 71 72 72 70 69 67 64 60 57 55 55 53 51 50 47 47 47 48 52 60 66 67 64 63 66 61 45 33 30 27 22 19 17 17 18 19 21 34 63 85 92 98 97 88 84 79 71 67 66 67 67 64 62 64
66 67 68 70 71 74 75 75 74 73 72 71 70 69 67 64 62 62 62 63 66 69 70 70 69 67 65 62 58 57 57 55 54 52 47 47 53 53 53 56 55 52 53 53 56 59 54 46 41 37 30 20 14 15 16 17 18 19 35 62 81 93 96 91 86 80 72 67 63 64 66 64 61 62
70 72 73 72 73 75 78 79 80 79 78 75 75 75 74 73 71 67 64 62 63 66 68 69 69 66 64 61 57 55 55 55 56 54 49 51 58 55 47 44 43 42 46 50 53 59 63 61 55 52 50 37 21 14 13 14 18 18 20 33 55 76 90 92 87 82 76 69 63 60 62 63 62 62
75 77 78 77 77 79 82 83 84 87 87 84 82 81 80 81 81 78 73 70 70 71 70 70 69 66 63 61 58 56 57 58 57 54 51 53 57 54 45 42 43 42 44 46 46 49 55 61 60 54 49 39 24 15 13 12 14 16 17 19 29 47 67 82 85 82 77 71 65 60 57 59 61 62
79 80 81 82 83 85 88 89 91 93 94 92 88 85 86 89 88 86 82 77 74 74 74 72 70 68 67 64 62 61 61 61 59 55 54 56 56 52 47 46 47 46 44 44 45 49 53 59 67 67 58 45 29 15 10 12 13 13 14 15 18 26 39 55 67 73 74 70 64 61 57 55 56 59
88 86 85 86 89 93 95 97 98 99 99 98 94 90 90 93 93 91 88 83 78 75 74 74 73 72 71 69 68 66 64 63 63 63 62 60 57 54 53 53 51 47 47 47 49 57 61 61 65 71 72 67 55 34 14 8 11 12 13 14 14 16 23 32 42 50 56 59 58 56 54 53 52 53
97 95 93 92 93 97 100 100 99 100 100 100 99 96 95 96 96 94 91 88 83 79 77 76 76 75 73 72 71 69 68 67 67 69 68 65 62 60 59 58 52 47 50 53 57 65 72 74 73 71 70 71 72 64 41 20 12 9 9 11 13 13 14 18 26 33 37 41 44 46 46 47 47 47
100 99 98 98 97 98 98 97 96 98 100 100 100 100 99 98 98 97 94 91 87 85 83 80 78 77 74 75 75 72 70 69 69 69 69 67 67 65 63 61 54 47 48 56 68 75 74 77 82 80 75 70 70 75 71 58 46 34 20 11 9 12 14 13 15 21 27 31 34 36 38 39 39 40
101 99 99 101 100 98 97 97 98 99 100 100 100 100 100 100 100 100 99 96 93 90 87 84 80 78 74 73 74 73 73 74 75 75 74 71 70 68 67 66 62 57 58 65 78 84 77 78 86 86 83 79 72 71 76 78 78 74 62 45 28 18 16 16 14 13 18 24 28 30 32 33 34 34
101 100 100 100 100 99 96 94 97 101 100 100 100 100 100 100 100 100 100 100 99 95 93 90 85 81 77 75 73 73 75 80 82 81 80 78 77 77 76 76 73 72 72 75 85 91 81 75 80 80 78 81 80 75 75 77 80 82 84 82 72 51 28 17 16 13 11 16 21 26 28 29 30 30
100 100 100 99 100 101 94 87 92 100 100 100 100 100 100 100 100 100 100 100 100 100 98 97 93 89 86 83 81 80 81 84 87 87 87 86 85 86 86 84 81 77 74 76 89 97 84 73 77 77 71 73 78 77 76 77 78 82 85 87 88 75 44 19 13 13 11 11 14 19 23 25 27 28
100 99 100 98 98 100 96 91 95 100 100 100 101 100 100 100 99 100 100 99 100 100 100 100 99 97 95 93 93 92 91 91 91 94 94 93 92 91 90 87 82 77 75 77 88 95 87 80 82 76 65 63 66 67 68 70 73 81 87 86 80 68 50 31 20 14 11 10 10 12 16 20 23 26
100 99 100 99 97 97 98 98 99 100 100 100 100 100 100 100 100 100 100 100 99 100 100 100 100 99 99 99 99 99 99 98 96 97 95 92 91 88 86 85 80 76 76 77 84 92 89 84 83 76 68 65 63 62 62 64 69 75 81 82 72 59 50 45 37 27 19 13 11 11 14 18 22 26
99 99 100 100 98 97 99 100 100 100 100 99 100 101 100 99 100 99 97 95 94 96 99 100 101 101 100 99 98 98 98 96 97 99 95 89 89 87 84 83 79 77 77 74 76 86 89 86 86 82 78 75 71 68 67 66 70 74 78 81 76 62 54 51 47 44 37 28 21 16 15 21 32 39
98 99 99 100 100 97 96 99 100 100 100 100 100 99 99 101 100 95 92 92 91 92 94 93 93 94 95 96 98 98 96 93 94 98 97 92 91 89 85 83 80 80 77 71 73 83 86 85 85 82 79 78 74 70 71 71 74 76 80 87 89 83 77 72 68 68 67 61 53 43 33 34 45 56
95 97 98 100 100 96 94 98 101 99 98 100 100 99 102 101 92 83 83 86 86 88 88 83 82 85 86 88 89 89 93 96 94 94 97 99 98 95 89 85 82 82 79 73 77 88 90 88 87 84 84 85 81 76 76 79 80 79 80 84 88 89 91 90 88 88 89 87 84 78 70 64 63 66
92 93 95 94 93 92 93 97 99 97 96 100 100 99 98 89 78 77 84 85 86 92 94 91 92 94 91 90 88 84 88 95 94 90 94 99 101 99 95 89 84 83 82 78 80 89 94 93 90 89 90 91 87 82 83 87 89 87 84 84 84 85 87 90 92 93 93 92 91 89 87 84 79 75
89 88 89 86 84 88 94 97 98 96 93 95 98 98 94 86 82 89 95 94 95 99 100 98 100 100 98 98 98 94 92 92 92 92 95 98 100 100 98 95 90 87 85 84 84 88 95 97 94 93 94 92 86 83 86 92 95 94 92 89 86 85 87 90 93 95 95 96 95 92 89 87 84 82
89 87 86 82 79 84 94 98 96 89 85 89 94 92 89 90 94 98 99 99 100 100 101 100 97 94 94 96 97 98 97 92 90 92 95 96 99 100 100 100 98 95 92 91 89 89 93 97 98 97 98 96 91 86 85 89 94 97 97 95 92 91 91 90 90 92 93 94 95 94 91 90 88 87
90 87 85 81 77 81 91 93 85 80 83 90 88 81 82 92 98 95 91 89 89 91 97 100 94 85 84 88 90 93 95 93 90 90 91 91 93 96 97 97 95 93 91 88 85 86 93 98 99 99 99 99 96 89 84 88 93 92 92 95 97 96 95 92 90 90 90 91 92 92 92 93 93 94
91 89 85 80 77 81 88 88 84 85 89 87 83 83 90 98 95 85 78 77 79 82 86 91 91 85 79 80 82 84 85 85 85 87 89 89 89 90 93 94 92 91 92 89 84 86 94 100 100 99 99 98 96 93 89 91 93 88 87 91 91 89 92 94 94 94 94 94 93 92 92 92 90 90
93 92 88 85 83 83 86 88 89 92 92 88 89 95 99 96 89 80 76 75 78 80 78 78 83 84 81 80 79 79 79 80 83 86 89 91 94 96 98 98 98 98 98 93 85 82 89 96 100 100 99 97 95 95 93 92 90 88 86 86 83 84 91 95 95 96 99 99 98 97 96 95 93 92
96 93 92 95 94 88 86 89 92 92 92 94 98 98 95 91 85 78 76 78 81 84 83 80 79 80 80 80 81 82 83 82 81 82 83 85 89 95 99 100 98 97 97 92 84 78 81 91 99 101 100 98 94 92 92 92 89 88 87 86 84 84 87 91 94 96 98 99 100 100 100 100 99 99
100 96 93 96 98 95 93 95 98 98 98 99 97 91 86 84 79 74 78 87 93 94 93 91 88 85 83 81 82 86 89 88 84 83 84 84 84 88 97 101 96 91 92 94 92 87 82 87 97 101 100 98 95 92 91 91 87 85 86 87 88 88 87 89 93 94 96 99 101 100 100 100 100 100
99 99 97 92 92 96 99 100 100 100 100 97 92 86 81 78 77 79 88 97 100 99 98 97 95 92 90 88 85 84 86 87 86 84 87 91 91 90 94 96 92 89 89 91 95 98 93 90 96 101 100 99 98 97 97 94 88 85 86 86 88 91 89 88 88 90 95 99 99 98 100 100 99 100
94 95 96 91 89 94 99 101 99 96 94 90 86 84 83 78 76 82 92 96 96 96 98 98 96 94 93 91 87 84 82 82 82 81 82 86 88 87 86 84 85 88 88 85 88 96 99 98 99 100 100 100 100 99 100 98 93 88 86 86 87 89 87 84 85 90 94 97 96 96 98 99 99 100
96 92 91 91 95 98 98 97 94 88 86 85 80 79 81 80 77 82 90 94 94 95 97 97 96 95 94 92 90 88 84 82 81 81 81 81 82 83 82 81 84 86 86 83 83 89 97 101 100 100 100 100 100 100 100 100 98 95 92 89 87 88 85 82 86 93 97 98 98 97 94 95 97 100
100 95 87 86 92 96 94 90 88 84 82 81 77 75 78 81 80 83 88 91 92 94 95 95 95 95 94 93 93 91 89 86 82 80 81 81 82 82 82 82 85 85 83 82 81 85 95 100 99 100 100 99 100 100 98 96 97 97 97 94 89 88 88 85 88 97 100 99 100 99 93 90 94 97
94 93 88 84 86 90 89 87 86 83 80 78 77 76 77 80 81 83 86 86 86 89 91 92 93 95 96 95 95 93 93 92 88 83 81 80 80 81 79 78 81 84 85 84 81 82 93 100 100 99 99 98 101 99 91 89 93 93 95 98 94 89 90 89 90 96 100 99 100 100 95 90 91 92
86 85 85 84 83 84 85 85 85 84 81 80 80 79 78 79 82 83 84 84 84 86 90 91 93 96 97 97 96 95 94 94 92 89 87 85 84 83 78 74 77 82 85 87 85 84 91 99 100 98 94 92 95 92 84 88 97 94 89 93 95 89 89 93 94 95 98 100 99 98 95 91 88 84
83 79 80 81 80 82 85 85 83 83 83 81 80 80 79 80 82 83 85 85 85 86 89 89 89 93 96 97 99 98 96 95 93 90 89 88 87 86 82 77 76 76 78 83 85 83 87 95 98 95 91 86 83 80 75 80 90 87 78 80 89 90 89 93 95 95 96 100 99 95 93 90 84 81
84 80 77 77 78 81 85 83 81 83 85 82 80 81 82 84 86 86 87 87 86 86 87 87 88 92 96 98 100 100 98 97 96 94 93 91 89 88 84 78 73 70 71 78 84 82 82 88 91 90 88 84 79 75 72 75 85 90 84 81 87 91 91 93 95 95 97 100 100 97 94 90 86 85
85 82 80 80 81 82 84 83 82 83 84 83 83 85 85 86 87 87 86 86 85 86 87 88 88 93 97 98 99 100 98 96 96 95 94 94 93 91 86 80 77 74 74 79 84 81 78 81 85 85 85 84 82 81 81 83 89 96 97 92 90 93 95 95 93 94 96 96 95 97 96 91 87 87
92 89 87 87 87 85 83 83 83 83 85 87 89 89 89 88 88 87 86 86 86 87 89 89 89 92 96 97 99 100 100 98 96 95 94 94 93 88 83 79 79 80 79 80 82 79 75 76 83 86 86 87 88 88 86 83 84 91 98 99 96 97 100 99 94 93 95 94 92 94 92 85 83 85
99 97 95 93 91 88 87 87 87 88 90 92 92 92 93 93 93 93 92 91 91 92 92 90 89 91 96 98 99 100 100 99 98 96 96 97 95 89 85 83 83 82 82 81 79 75 73 76 83 89 90 92 93 89 82 78 80 89 97 101 100 99 101 100 97 97 98 97 95 93 87 80 81 83
100 101 101 99 97 95 95 94 94 93 93 92 92 94 96 95 94 94 93 92 92 93 92 90 90 93 97 100 101 101 100 99 99 98 97 98 99 96 94 93 91 88 84 82 82 82 82 84 90 93 95 98 98 93 85 80 81 88 97 100 100 100 100 100 100 100 100 100 99 97 91 85 82 80
101 101 101 100 97 97 96 95 93 92 92 93 94 96 95 92 92 94 94 93 92 93 93 93 93 95 98 100 101 100 98 97 98 99 99 99 100 98 95 95 96 93 88 85 88 92 95 96 97 97 99 101 100 96 91 86 85 89 97 100 100 100 100 100 99 100 100 100 100 100 97 93 89 84
Wind_Speed
18 19 20 20 21 21 20 21 20 20 20 19 18 18 17 14 9 7 7 7 7 8 6 6 6 4 4 4 5 6 7 8 8 9 10 11 13 14 14 15 16 15 15 17 19 20 19 18 17 14 12 11 11 12 10 9 9 10 10 10 10 8 8 8 11 15 14 10 15 20 22 25 26 28
17 18 18 18 18 18 19 20 20 20 20 19 19 18 17 17 14 10 8 8 8 9 7 7 6 5 5 5 6 7 8 9 10 11 11 11 12 15 17 18 17 16 15 16 19 20 19 18 17 15 12 9 8 9 10 8 5 6 8 9 9 9 9 8 8 8 12 14 9 9 15 20 24 24
16 17 17 18 17 16 16 17 17 17 17 17 17 17 16 17 18 15 12 9 9 10 9 8 9 8 8 8 8 9 9 10 11 12 12 12 13 14 17 18 18 17 16 16 18 20 20 19 18 16 13 10 8 6 7 4 2 4 6 6 6 7 8 6 6 4 5 8 11 9 8 11 17 22
15 15 16 16 16 16 15 15 15 16 15 15 15 15 15 16 17 17 15 11 10 13 13 12 12 11 11 10 10 10 11 11 11 12 11 12 13 13 14 15 16 17 17 17 17 19 20 20 19 18 15 13 10 8 4 1 2 4 3 2 3 5 6 3 1 2 3 3 5 7 8 9 10 13
15 14 14 15 15 14 14 13 13 13 14 15 15 14 14 16 15 16 16 13 12 14 14 14 13 12 12 11 10 10 11 11 10 11 11 11 12 13 14 14 13 14 15 16 17 18 19 20 21 19 17 15 13 11 8 3 4 4 1 1 1 1 3 3 5 5 3 3 3 3 5 7 10 9
15 14 15 15 14 14 14 15 14 13 12 13 15 15 14 15 15 15 16 15 13 13 14 13 13 12 12 12 11 10 11 11 11 11 11 11 12 13 13 13 12 12 12 13 15 17 19 20 21 21 19 18 16 14 12 10 8 5 4 2 4 5 2 1 2 4 1 2 3 3 2 3 4 6
16 16 16 15 14 13 14 15 16 16 15 14 15 15 14 14 15 14 15 15 14 15 15 14 13 12 12 12 12 11 11 11 11 11 12 12 12 12 12 12 13 12 12 12 13 15 18 20 21 22 21 20 18 17 15 15 13 9 6 5 4 7 6 5 4 3 5 5 4 4 3 2 1 2
16 16 16 15 15 14 14 14 14 14 15 15 15 16 15 15 15 14 15 15 16 15 15 15 14 13 12 12 12 11 12 12 12 12 12 12 12 13 13 13 13 12 12 13 14 15 18 20 21 22 23 22 20 20 19 18 16 13 10 8 6 6 7 8 7 6 7 9 9 7 6 6 6 6
16 16 16 15 14 14 15 14 13 13 14 15 16 16 16 15 15 15 14 15 15 15 16 16 15 14 13 14 13 12 12 13 13 13 13 12 12 12 12 12 12 12 13 14 15 16 17 19 21 23 23 24 23 22 22 21 19 17 15 13 10 8 8 8 8 7 7 8 10 11 11 10 10 9
17 16 16 15 15 15 16 15 15 15 15 16 17 17 17 16 15 15 15 15 15 15 16 17 16 16 15 14 14 13 12 13 13 13 12 11 10 10 10 10 11 12 13 13 14 14 14 15 17 19 21 23 25 25 24 24 22 20 19 17 15 12 10 9 9 8 7 7 8 10 12 12 11 11
17 17 17 17 17 17 18 17 17 16 15 17 18 18 17 16 16 16 15 15 15 15 16 16 16 16 15 15 14 13 13 13 13 13 12 11 9 9 9 9 10 10 11 11 12 13 14 14 15 17 19 20 23 25 26 26 25 23 22 21 19 16 14 13 11 10 9 8 8 9 11 12 12 12
18 18 18 18 19 19 19 19 18 17 16 16 16 17 16 16 16 16 14 14 14 14 14 14 14 14 14 14 13 13 12 11 11 11 10 10 10 9 8 9 9 10 11 11 12 12 13 13 15 16 19 21 23 25 27 28 27 26 25 24 22 20 19 17 15 14 12 11 10 10 11 12 13 13
18 18 18 19 20 20 20 19 19 18 17 16 16 16 16 16 16 15 14 14 13 13 13 13 13 12 12 13 12 11 11 11 11 10 10 10 10 10 10 9 9 9 11 12 13 12 12 12 13 14 17 20 22 24 27 29 29 28 27 26 25 23 22 21 19 18 16 15 14 13 12 12 13 14
18 18 18 18 19 20 20 20 19 19 19 19 18 16 15 16 16 15 15 14 14 14 13 13 12 11 11 11 11 11 11 11 11 11 10 10 10 10 9 9 9 8 9 11 12 11 11 12 13 13 15 16 17 21 25 29 30 29 28 28 27 26 25 24 24 22 20 19 18 17 16 15 14 14
17 17 18 18 18 19 19 20 21 22 22 23 21 20 18 17 17 16 15 15 14 13 13 12 12 12 11 11 10 11 12 11 10 10 11 10 10 9 7 7 8 6 5 8 11 11 11 11 11 13 15 15 15 18 21 25 27 28 29 29 29 28 28 27 27 26 25 23 22 20 19 18 16 15
16 16 18 18 19 19 20 21 22 22 23 24 24 24 22 21 19 18 17 15 14 14 13 13 12 12 11 11 11 11 11 10 9 9 10 11 10 9 8 7 8 7 7 9 11 13 14 13 12 12 13 15 16 17 17 19 21 23 26 29 30 30 30 30 30 29 28 27 26 24 22 21 19 18
17 17 16 17 18 20 20 20 20 21 22 22 24 25 25 25 24 22 20 18 16 16 15 14 14 14 12 11 11 11 10 9 9 8 10 11 11 11 9 8 10 12 11 11 11 12 14 14 12 13 12 12 15 16 16 16 17 18 20 23 27 30 30 31 31 31 30 29 28 27 25 23 22 21
18 18 17 17 17 18 19 19 20 21 21 20 20 22 24 26 25 24 24 23 21 20 19 18 17 15 14 14 13 12 11 11 12 11 11 11 11 13 13 12 14 16 14 12 10 10 14 15 13 14 13 10 12 14 14 15 16 16 17 18 21 26 29 31 31 32 32 30 29 28 27 25 24 23
19 19 19 18 17 17 18 20 21 22 22 21 19 18 20 23 23 23 24 25 25 26 25 25 24 21 20 19 17 16 14 14 15 15 13 13 13 13 15 15 16 15 14 11 8 8 13 14 11 12 13 11 11 13 13 15 16 16 17 18 19 22 26 29 30 31 32 32 30 29 28 27 26 24
22 21 21 20 19 19 20 22 22 21 21 22 21 18 17 18 20 21 23 24 25 26 26 26 27 27 26 22 20 18 15 14 14 12 12 12 11 11 12 12 13 13 12 9 9 9 13 13 9 11 12 11 12 14 14 15 17 17 18 19 20 21 24 26 28 30 31 32 32 31 30 29 27 25
22 22 22 21 20 20 21 22 21 20 20 22 22 19 17 16 17 19 21 22 23 24 24 24 23 24 23 21 19 18 16 16 14 11 9 10 9 8 8 7 10 12 10 8 9 9 12 13 10 11 12 13 14 14 14 15 16 18 19 20 21 23 24 25 26 27 29 31 31 31 31 30 28 25
22 22 23 23 22 20 20 19 18 19 21 22 20 18 17 16 17 20 22 23 23 23 24 24 23 22 21 20 19 19 18 17 17 15 15 13 9 8 8 7 9 11 12 12 10 9 13 14 11 11 12 13 15 15 14 14 14 15 17 18 21 24 25 25 26 26 27 28 29 30 30 29 26 24
21 22 22 24 25 22 20 19 18 18 22 24 23 19 16 15 18 22 23 22 22 22 23 24 24 24 23 22 21 21 19 19 19 20 21 19 14 10 10 10 9 8 10 12 9 9 13 13 11 12 10 8 11 15 17 15 14 14 15 15 18 21 22 23 24 24 24 25 26 27 28 27 24 22
21 22 21 22 25 25 23 21 20 19 21 25 26 22 18 17 19 21 21 20 21 21 21 21 21 22 23 22 22 22 20 20 20 21 23 23 21 16 14 14 11 9 13 14 10 10 13 11 11 13 10 6 7 10 14 16 15 14 14 13 14 16 19 20 21 22 22 22 22 22 23 23 23 23
20 21 21 21 23 25 25 24 22 21 21 24 26 26 24 21 19 19 18 19 19 18 18 18 16 17 18 19 21 21 20 19 18 19 21 23 23 21 19 17 14 14 19 18 13 12 13 11 12 15 12 9 8 7 7 11 13 14 14 13 12 13 15 19 20 21 21 21 21 20 21 21 21 23
21 20 20 21 22 24 26 26 25 24 22 23 25 25 25 23 21 20 20 17 16 16 17 15 13 13 14 14 16 17 18 18 18 18 19 21 22 23 23 20 17 17 18 16 12 13 14 13 14 14 11 8 8 8 4 4 7 10 11 11 11 11 13 16 18 19 19 20 21 21 21 21 21 22
20 20 20 21 22 24 25 26 27 26 24 22 20 18 19 20 19 18 15 12 11 14 15 15 14 13 13 13 13 14 16 17 18 19 20 20 21 22 23 23 21 22 22 19 16 17 17 17 17 16 14 11 8 6 4 2 5 7 9 10 11 11 11 13 14 16 17 17 18 20 21 21 21 21
20 20 20 21 22 24 24 25 27 27 25 21 18 16 17 15 11 9 7 6 8 11 12 14 14 13 13 13 13 13 14 15 16 19 20 20 21 22 23 23 23 24 24 24 24 22 20 18 18 17 16 14 8 5 6 4 4 9 8 9 9 9 10 11 12 13 14 14 14 15 17 19 21 20
21 20 21 22 23 24 24 25 26 25 24 22 18 15 13 11 8 6 5 5 8 11 12 13 14 14 14 14 14 14 14 14 15 17 18 19 21 22 22 23 24 25 25 25 24 23 21 19 19 16 14 13 10 8 8 7 1 6 7 6 6 7 9 11 11 11 12 12 12 13 14 17 20 20
22 22 21 22 24 24 24 24 24 23 23 22 17 14 13 12 9 6 5 6 9 12 13 13 14 14 15 15 16 16 16 15 16 16 17 18 20 21 21 20 20 22 23 24 24 23 22 22 19 16 13 12 11 10 9 9 5 1 2 3 3 4 7 10 10 9 10 11 12 13 13 14 15 17
22 23 23 22 22 23 24 24 22 22 21 19 17 15 14 13 10 7 6 8 11 12 12 13 13 13 13 14 16 17 18 18 18 17 17 17 17 19 19 16 15 16 18 20 21 21 21 22 20 16 14 12 11 11 10 9 8 5 3 3 3 2 4 8 9 8 9 9 9 10 10 11 12 14
18 20 22 22 21 22 23 23 20 19 19 19 16 15 13 11 11 10 8 9 11 11 11 11 11 11 11 12 13 15 16 17 18 18 19 18 17 18 18 15 12 13 13 14 16 17 18 19 18 17 16 14 12 11 9 9 9 7 6 6 6 4 2 6 9 8 7 8 8 8 8 9 10 12
17 17 19 21 21 21 20 19 17 16 16 15 14 15 14 12 10 9 9 10 11 11 11 11 10 10 10 11 11 12 13 14 15 16 18 18 18 18 17 14 12 12 12 12 14 15 16 17 16 16 16 15 14 13 10 9 9 8 7 8 7 5 3 4 6 7 8 8 8 8 8 7 7 8
19 18 18 18 19 20 18 16 15 14 14 12 13 15 16 14 11 9 10 11 11 10 10 9 9 9 9 9 10 11 12 13 14 14 15 16 15 15 15 14 14 14 13 12 12 14 14 14 13 15 16 16 15 16 15 12 9 8 9 9 9 7 6 6 7 8 8 8 8 8 9 8 7 7
18 18 19 16 13 15 17 16 14 14 14 14 14 14 14 14 13 12 11 10 10 8 8 7 8 8 9 8 9 10 11 12 13 14 15 16 16 16 16 16 16 17 16 14 13 13 15 15 14 14 14 13 12 13 18 19 14 9 9 10 10 10 8 7 8 9 9 9 7 6 7 8 7 7
15 15 19 18 13 12 15 15 15 15 15 15 15 15 13 12 13 13 11 11 11 9 8 7 7 8 8 9 9 9 10 12 13 14 14 15 16 16 16 16 17 18 17 16 14 14 16 19 19 14 9 7 6 7 13 20 22 18 13 10 10 11 10 8 8 9 10 10 9 8 7 8 9 9
17 15 16 18 16 13 13 14 15 16 16 15 15 15 14 12 13 14 14 14 12 10 9 8 7 7 7 8 8 9 10 11 12 13 13 14 15 15 15 15 16 17 18 17 17 17 17 19 20 16 9 5 4 5 8 13 18 21 20 16 13 11 10 10 10 10 11 11 10 11 10 8 9 10
21 18 16 16 17 15 14 15 15 16 16 16 15 15 14 12 13 15 16 15 13 10 8 8 7 6 6 7 7 8 9 9 11 12 12 13 13 14 14 14 14 14 16 17 17 19 19 18 18 17 13 7 5 5 6 7 12 18 22 22 19 15 12 12 11 11 12 12 11 11 10 9 8 8
21 21 20 18 17 16 16 17 17 16 16 17 16 16 16 15 15 16 16 14 12 10 9 8 8 7 7 7 7 7 8 9 10 11 12 12 13 13 13 13 12 12 14 15 16 18 19 18 17 16 16 13 9 8 9 10 12 16 20 23 23 20 14 12 12 11 12 15 15 13 11 10 9 8
21 20 20 20 19 17 17 18 18 17 17 18 18 17 17 17 16 16 15 13 12 12 11 10 9 8 7 6 6 6 8 9 10 11 11 12 13 13 14 14 13 12 12 12 14 16 18 19 19 18 18 16 14 13 13 11 10 11 14 19 24 24 17 12 11 11 11 14 16 15 12 12 10 9
22 20 19 19 19 18 17 18 18 18 18 18 18 17 17 16 15 14 14 13 13 13 12 11 11 10 9 7 6 6 8 9 9 11 12 12 13 14 13 11 11 11 11 11 13 16 18 20 21 21 20 18 15 13 11 7 6 9 12 15 21 26 24 17 13 12 11 12 15 14 13 12 12 11
17 18 17 16 16 17 18 19 19 18 17 17 18 17 17 16 15 14 14 13 13 13 12 11 10 10 10 9 8 7 8 9 9 10 10 11 12 13 12 11 11 12 13 13 14 17 17 18 21 22 20 18 16 11 8 6 6 10 12 12 13 19 24 22 18 14 12 12 14 14 12 10 9 8
12 15 16 16 17 18 18 18 17 17 16 16 16 16 15 15 14 13 13 12 12 12 11 10 10 9 9 9 9 8 8 9 9 9 10 10 11 11 11 12 14 15 16 15 14 14 13 15 20 22 20 18 16 12 9 9 10 12 14 12 9 11 16 20 20 18 15 13 14 14 13 11 7 5
12 13 14 15 16 16 16 16 16 15 15 15 14 14 14 13 12 12 12 11 11 11 11 10 10 9 9 8 8 8 8 8 8 9 10 10 10 11 12 14 14 14 16 16 12 9 9 11 15 19 18 15 15 13 11 11 11 12 14 14 11 11 12 15 16 17 16 14 14 14 15 14 10 6
11 13 14 14 14 14 14 13 13 12 12 12 12 13 13 12 11 11 12 11 11 11 11 10 10 9 9 8 7 7 7 7 9 11 12 11 11 12 14 16 15 15 17 15 11 10 10 10 11 13 13 13 12 13 13 13 11 13 15 15 14 14 14 15 15 15 13 12 12 12 12 12 11 9
Wind_Direction
240 242 242 245 248 248 249 252 254 254 256 257 258 262 266 270 277 282 281 281 281 279 275 279 283 267 261 276 265 259 269 277 290 306 310 307 305 304 300 291 285 288 293 293 291 296 309 318 320 331 348 1 16 22 13 1 352 351 1 356 334 329 338 349 20 49 79 140 192 208 213 209 198 190
238 240 241 243 245 246 247 249 252 252 253 254 255 257 258 260 263 271 278 277 277 280 279 278 283 282 283 294 294 287 285 285 289 297 301 302 300 301 303 299 290 284 286 284 279 282 293 305 312 313 318 335 353 6 11 13 8 356 359 359 347 337 343 350 351 17 59 76 102 169 197 207 206 197
235 237 239 240 242 244 246 246 247 249 248 248 251 252 252 254 256 261 269 272 270 275 282 281 283 288 288 292 298 295 293 293 293 294 294 295 298 300 302 303 298 288 284 283 276 274 281 291 301 301 296 307 319 331 359 27 59 12 359 350 342 334 341 19 43 38 46 53 57 76 117 167 192 200
233 234 235 236 239 241 243 245 244 244 243 241 244 247 246 248 251 254 258 265 269 272 278 282 282 283 282 284 288 289 291 292 291 291 290 292 296 300 302 303 303 295 285 283 278 271 272 279 287 290 287 289 295 297 310 38 47 12 6 330 316 325 333 346 18 11 15 17 30 39 54 92 131 170
231 232 233 234 235 236 239 242 243 243 241 237 238 240 242 244 246 248 252 260 271 273 274 276 278 279 279 279 280 283 286 288 288 288 289 293 294 296 299 299 300 300 291 284 280 274 271 273 277 281 281 279 281 284 275 271 336 337 242 117 84 282 309 302 275 289 341 19 39 51 51 71 80 94
230 230 232 233 232 232 235 237 240 244 244 239 237 236 238 241 242 244 249 256 267 274 275 276 278 282 284 284 282 282 284 285 287 289 289 291 291 289 294 295 294 295 293 287 282 277 273 271 271 271 272 272 273 278 270 264 288 282 204 159 100 127 157 210 258 269 261 99 120 146 131 89 67 58
229 229 229 229 227 226 228 231 234 238 243 243 240 236 235 239 242 242 245 253 263 272 277 277 278 281 284 285 284 284 285 286 287 289 288 288 288 288 289 291 291 290 289 288 285 279 273 271 269 265 265 265 264 268 265 260 269 262 210 190 142 134 141 141 144 191 206 198 189 185 188 200 246 306
228 226 224 224 223 222 224 227 227 229 234 238 238 237 237 238 241 242 244 249 258 269 276 276 276 279 281 283 287 290 290 289 287 285 287 287 286 287 285 284 286 286 286 287 285 279 271 267 266 263 260 260 259 260 259 258 264 261 232 209 191 163 158 157 151 157 186 211 219 219 223 234 249 263
228 226 224 222 219 218 221 224 224 225 227 230 233 234 236 237 239 241 243 247 253 261 270 276 277 278 280 281 283 286 286 287 287 285 285 286 285 284 282 280 280 283 285 288 288 284 275 268 266 263 259 255 253 253 254 255 260 259 244 228 219 202 181 175 174 164 162 184 207 222 233 239 244 249
229 228 227 224 220 218 219 221 223 225 227 231 232 232 233 235 238 241 242 245 250 256 263 271 277 278 279 280 280 280 280 279 282 284 284 285 285 281 279 279 281 284 285 287 288 287 281 274 268 265 262 256 252 249 249 250 254 255 250 239 229 221 209 198 196 193 180 174 186 206 221 227 230 234
230 229 228 227 226 224 221 221 222 223 225 229 230 230 231 232 233 237 240 241 245 252 257 263 270 275 277 279 279 280 281 278 277 279 281 284 283 278 278 283 286 286 285 284 285 283 281 277 269 262 258 254 250 247 246 246 249 250 248 244 237 230 224 217 215 214 210 201 194 199 209 213 215 218
229 231 229 229 229 227 224 221 219 217 217 220 225 226 226 225 226 228 231 234 237 242 249 254 260 269 274 277 279 282 283 282 277 273 271 275 279 281 285 289 292 293 293 291 288 284 280 278 275 267 260 254 248 244 243 243 244 244 244 244 242 237 231 226 225 224 221 216 213 211 210 208 208 210
226 229 229 229 228 227 225 222 218 216 212 212 217 219 217 217 219 221 223 225 229 233 240 246 251 258 265 268 275 280 279 280 283 284 281 278 281 288 291 293 296 294 291 290 288 284 278 271 270 269 266 261 253 246 243 241 240 241 241 241 242 241 237 233 230 230 228 225 223 222 222 217 211 209
220 224 228 229 229 229 228 225 222 220 217 215 215 214 212 211 212 215 219 221 224 229 233 238 241 245 251 256 264 272 276 282 288 290 289 285 286 291 294 299 300 286 281 287 285 283 278 265 256 255 257 260 258 251 246 242 239 238 238 240 241 241 239 237 235 234 233 230 228 227 226 225 221 216
214 218 224 229 231 230 228 228 228 226 224 223 223 221 219 214 211 211 213 217 221 225 229 234 235 238 243 247 252 263 273 282 284 284 285 285 290 293 294 304 305 291 295 305 300 297 292 279 266 256 249 248 251 250 248 246 243 240 237 237 238 240 240 238 237 236 236 235 233 230 228 227 226 224
212 215 221 226 230 230 230 232 235 235 232 229 228 229 227 224 221 216 215 215 216 218 224 231 232 234 239 242 244 251 261 273 282 289 289 285 286 286 284 293 295 295 322 332 321 309 297 292 297 285 258 245 246 247 246 246 245 244 241 237 237 239 239 238 237 237 237 237 236 234 232 231 230 229
214 215 218 220 226 232 235 237 240 243 242 236 232 231 231 230 229 227 226 224 219 217 220 226 232 233 235 238 239 239 246 258 269 282 289 288 289 287 286 288 286 292 313 323 314 304 295 297 309 303 281 255 246 245 243 241 240 242 243 240 239 239 239 238 237 237 237 237 237 236 235 234 233 232
218 217 217 217 221 226 233 240 241 242 244 240 233 229 230 231 231 231 232 232 230 228 224 225 230 232 233 239 244 243 243 247 252 263 277 284 288 289 291 292 288 289 295 293 289 292 291 291 293 291 291 283 257 246 244 242 240 238 239 240 239 239 239 239 238 237 237 238 238 238 237 236 235 234
222 222 220 220 219 219 228 240 244 243 241 236 228 224 225 227 228 229 231 232 233 234 232 233 236 240 242 245 249 252 252 251 253 260 270 274 278 287 292 293 291 289 288 278 262 267 280 283 282 278 282 282 263 251 247 245 242 239 237 238 239 240 240 240 238 237 237 238 240 240 240 238 236 236
224 225 222 220 219 219 229 240 242 241 237 231 225 220 220 222 223 226 228 229 231 234 235 237 241 246 249 249 249 250 249 249 251 258 270 271 268 275 284 289 288 290 292 272 236 242 272 282 279 273 271 264 255 249 245 244 241 237 235 234 237 240 242 241 239 237 236 236 237 239 241 241 240 238
221 222 220 220 219 221 228 234 232 225 222 222 221 218 217 218 219 225 229 231 232 234 236 240 243 246 248 246 246 247 245 242 239 237 252 261 258 258 267 281 285 287 293 281 245 241 266 274 271 274 270 260 255 251 245 241 237 236 238 236 235 238 240 241 240 238 237 236 235 236 238 241 243 242
220 222 221 220 220 221 223 225 221 212 210 214 216 214 215 216 220 228 234 236 238 238 239 242 245 248 248 247 247 247 244 242 235 226 234 245 248 251 254 267 287 292 291 286 272 254 259 265 267 274 273 264 257 252 247 244 238 235 238 237 234 234 236 238 239 239 238 237 237 237 238 239 242 243
219 221 222 221 221 221 220 219 218 212 207 211 216 217 211 213 226 235 238 239 241 241 240 242 244 246 247 248 249 247 245 244 239 232 235 239 236 240 254 264 281 297 289 285 284 263 259 261 258 257 260 260 252 243 237 238 236 231 231 231 229 229 229 230 234 237 238 237 238 237 238 239 238 238
216 217 219 221 221 220 221 220 217 213 208 211 220 222 214 216 233 242 242 242 243 242 243 246 247 246 245 245 246 247 246 245 242 238 237 236 231 230 247 260 267 273 274 281 297 287 272 273 275 272 267 257 253 243 229 228 229 225 223 224 223 222 223 224 227 231 233 235 236 236 236 236 234 232
215 215 216 220 221 220 221 220 216 214 211 211 218 224 224 228 240 244 243 245 244 240 241 246 245 242 242 243 244 245 242 240 239 236 234 234 231 231 239 248 252 257 263 272 285 287 281 279 284 290 286 264 266 278 247 222 221 220 215 217 221 219 218 219 222 225 227 228 230 232 232 231 229 228
217 216 215 218 220 218 219 219 216 213 212 212 215 221 228 237 244 243 240 241 237 229 229 231 229 226 227 231 235 234 231 229 228 227 226 226 227 229 233 235 236 244 257 266 271 275 284 288 286 292 296 279 280 300 291 201 200 207 201 202 215 220 216 216 217 218 221 222 223 224 226 226 226 226
216 218 217 219 219 216 218 220 216 212 214 215 214 219 230 239 241 239 237 238 232 224 219 218 224 228 224 223 227 226 223 222 221 220 222 222 222 225 229 232 234 241 252 261 266 270 281 291 293 297 302 301 308 324 310 221 171 171 176 185 199 207 206 209 213 215 215 217 219 220 222 224 224 225
218 218 219 220 219 216 216 218 217 216 216 213 212 224 235 233 223 216 219 239 248 239 224 216 222 233 231 226 227 225 221 221 222 222 224 227 227 228 231 234 238 243 250 257 263 266 269 275 282 290 298 302 308 317 306 290 157 155 169 175 175 181 185 187 197 208 209 210 211 212 217 222 222 224
220 220 219 219 219 216 216 218 219 219 216 210 211 224 228 212 199 205 222 256 263 254 243 231 226 231 235 233 231 231 228 226 225 225 226 230 232 233 235 239 242 245 249 254 258 261 261 262 268 277 288 297 299 296 302 310 192 158 164 158 158 177 183 177 179 189 192 195 199 201 210 217 220 225
219 221 222 222 220 217 217 220 220 218 214 208 205 212 218 214 214 220 231 253 258 253 250 247 240 234 233 232 232 234 232 228 226 224 224 226 226 226 229 234 239 242 246 251 254 257 257 258 261 265 269 278 285 285 289 302 307 245 166 154 163 179 175 171 173 175 176 182 189 192 199 206 210 219
219 219 223 228 229 223 221 222 220 213 207 199 196 208 220 222 221 225 234 242 247 248 249 253 255 251 244 238 233 231 228 227 227 226 225 225 222 218 216 220 231 239 245 251 254 255 254 254 254 255 253 255 267 274 276 285 296 296 272 240 233 213 180 173 170 169 172 176 178 181 188 193 199 208
220 217 219 226 232 231 227 222 212 198 192 191 199 211 216 215 223 237 239 231 233 240 242 246 253 257 257 251 242 235 232 230 227 225 224 225 225 219 209 205 221 236 240 244 247 248 250 249 244 240 240 241 247 259 268 271 272 278 284 266 245 239 202 168 166 171 172 168 170 180 187 192 199 206
219 219 216 217 222 226 221 207 190 181 182 189 201 209 209 211 223 229 222 218 224 229 230 235 240 244 247 248 246 246 247 245 241 235 230 228 228 223 212 207 218 233 236 233 230 231 240 245 236 227 230 234 235 238 247 258 254 247 261 273 259 235 211 189 187 187 179 174 181 186 184 188 195 198
212 216 215 213 212 209 201 187 177 176 181 189 199 205 210 216 217 211 210 217 221 217 216 223 230 233 237 240 241 244 247 249 250 248 242 237 233 226 223 224 226 227 231 234 226 216 219 225 221 215 220 227 229 228 229 237 246 237 235 251 255 238 222 214 203 194 190 194 199 191 181 185 197 205
211 213 212 211 203 191 183 179 179 181 185 194 201 202 204 207 206 206 209 210 206 202 205 215 222 228 234 238 238 240 242 244 248 248 245 242 236 230 230 232 227 220 220 228 230 216 201 195 194 198 210 220 230 235 230 227 228 228 227 235 242 240 233 216 200 196 201 208 206 194 188 190 201 217
216 214 206 204 200 183 174 176 181 185 189 197 200 196 191 190 195 201 205 201 195 193 194 205 216 223 229 233 235 237 239 241 244 245 244 241 237 233 233 234 230 224 217 217 224 219 200 188 185 186 193 206 217 238 239 231 226 224 223 226 232 234 228 216 202 196 200 203 196 192 203 206 207 217
214 217 206 203 203 195 182 179 182 188 194 197 194 191 189 187 191 200 203 202 203 201 198 203 210 216 225 232 236 238 237 237 239 241 243 242 240 238 237 237 236 231 221 214 217 217 202 185 181 183 186 191 197 214 233 231 225 223 222 221 224 227 222 213 210 209 210 207 197 197 212 220 212 216
206 211 210 207 205 200 194 189 188 191 195 191 185 184 186 185 191 201 206 210 215 215 211 211 215 217 223 230 233 235 236 237 238 240 241 242 241 238 236 237 237 234 227 219 216 217 209 192 183 187 194 198 206 211 206 198 206 218 220 216 215 219 218 207 207 216 218 209 196 197 214 220 211 217
200 206 210 210 206 200 196 195 195 193 189 186 185 190 192 191 195 203 209 213 215 213 210 214 219 220 223 229 232 235 238 238 238 239 239 239 239 238 238 238 237 236 231 222 217 219 216 204 194 196 202 208 213 209 200 197 207 221 226 219 212 213 213 201 200 216 222 212 200 195 201 206 205 211
195 203 207 206 204 200 194 192 193 191 187 188 194 197 198 199 202 206 206 206 210 213 214 216 217 216 221 230 233 236 240 240 239 241 243 244 245 243 239 237 239 240 236 225 218 220 219 213 208 207 210 216 221 213 201 198 197 203 214 216 212 211 212 203 197 208 218 214 207 201 198 201 205 211
191 197 202 200 195 190 182 177 180 184 186 190 194 195 195 198 200 200 199 201 209 216 216 215 218 220 225 232 234 234 240 244 242 243 246 248 250 249 244 241 244 245 242 235 227 224 222 219 218 216 215 218 220 207 190 183 169 171 187 204 210 213 215 212 205 207 210 208 205 203 200 201 202 202
173 177 182 180 174 172 170 170 176 182 185 189 192 193 195 196 196 196 200 206 212 216 215 215 220 225 230 237 240 238 239 243 246 249 251 250 249 247 243 241 243 244 245 242 231 226 228 226 219 213 210 212 212 200 186 194 188 170 174 190 207 212 213 213 211 210 207 200 200 199 194 189 191 195
136 146 154 158 159 164 169 170 173 178 180 184 189 193 195 197 199 201 205 211 215 216 216 216 219 224 231 238 240 237 236 241 248 253 256 255 252 248 241 236 233 233 241 245 237 229 232 227 211 200 197 203 210 207 203 209 198 168 160 170 186 199 206 210 212 214 214 208 205 201 192 183 179 189
117 126 135 142 148 155 160 162 166 171 175 181 188 192 192 194 199 201 202 206 211 212 213 216 220 227 234 239 243 245 247 253 257 259 260 259 256 253 254 253 243 231 233 238 230 210 207 206 193 185 186 195 203 203 206 213 201 170 158 164 172 177 184 192 200 208 215 214 210 207 204 200 197 191
109 118 124 130 137 143 150 157 162 168 174 181 187 190 189 190 195 198 199 205 211 215 218 221 225 231 237 240 246 253 256 260 261 260 260 261 259 253 254 258 256 244 233 225 202 176 176 181 179 179 186 193 197 204 213 216 197 169 162 165 168 168 171 172 174 182 190 191 191 196 206 212 213 212